Tracking 19846 objects as of 19-Sep-2019
HD Live streaming from Space Station
objects crossing your sky now

QUANTUM-RADAR 3

Track QUANTUM-RADAR 3 now!
10-day predictions


NORAD ID: 44416
Int'l Code: 2019-022F
Perigee: 475.9 km
Apogee: 492.6 km
Inclination: 51.6 °
Period: 94.1 minutes
Semi major axis: 6855 km
RCS: Unknown
Launch date: April 17, 2019
Source: United States (US)
Launch site: WALLOPS ISLAND (WLPIS)
aabbcc
Your satellite tracking list
Your tracking list is empty




NASA's NSSDC Master Catalog

Two Line Element Set (TLE):
1 44416U 19022F   19261.27933907  .00001656  00000-0  69373-4 0  9992
2 44416  51.6428 266.1432 0012158  58.3981 301.8184 15.29565880  6417
Source of the keplerian elements: AFSPC